Tracking 22779 objects as of 15-Apr-2021
HD Live streaming from Space Station
objects crossing your sky now

PEASSS

Track PEASSS now!
10-day predictions


NORAD ID: 42015
Int'l Code: 2017-008BV
Perigee: 489.1 km
Apogee: 496.8 km
Inclination: 97.3 °
Period: 94.3 minutes
Semi major axis: 6863 km
RCS: Unknown
Launch date: February 15, 2017
Source: Netherlands (NETH)
Launch site: SRIHARIKOTA (SRI)
aabbcc
Your satellite tracking list
Your tracking list is empty




NASA's NSSDC Master Catalog

Two Line Element Set (TLE):
1 42015U 17008BV  21104.64992619  .00001702  00000-0  67667-4 0  9998
2 42015  97.3172 171.7538 0005617 354.1513   5.9659 15.26645447231280
Source of the keplerian elements: AFSPC